Flag for Germany Weather past 2 weeks in Meiningen, Thuringia, Germany

Now
38 °F

Partly sunny.


Feels Like: 38 °F
Forecast: 38 / 50 °F
Wind: 2 mph from West

Location: Meiningen

Current Time: Mar 27, 2015 at 7:21:13 AM

Latest Report: Mar 27, 2015 at 7:00 AM


Visibility: 6 mi

Pressure: 29.94 "Hg

Humidity: 87%

Dew point: 34 °F

Location of MeiningenLocation

Historic Weather in Meiningen — Graph

°F

Meiningen temperature yesterday

Maximum temperature yesterday: 49 °F (at 12:00 AM)
Minimum temperature yesterday: 38 °F (at 11:00 PM)
Average temperature yesterday: 42 °F

Past Weeks' High & Low Weather Summary

 TemperatureHumidityPressure
High62 °F (Mar 25, 3:00 PM)96% (Mar 15, 6:00 AM)30.50 "Hg (Mar 15, 6:00 AM)
Low24 °F (Mar 23, 7:00 AM)23% (Mar 20, 3:00 PM)29.58 "Hg (Mar 25, 5:00 PM)
Average40 °F74%30.15 "Hg
* Reported Mar 12 6:00 AM — Mar 27 6:00 AM, Meiningen, Weather by CustomWeather, © 2015

Note: Actual official high and low records may vary slightly from our data, if they occured in-between our weather recording intervals... More about our weather records

Advertising

Meiningen weather history for previous 24 hours

 ConditionsComfort  
Time TempWeatherWind HumidityBarometerVisibility
6:00 AM
Fri, Mar 27
38 °FPassing clouds.3 mph86%29.90 "Hg7 mi
5:00 AM39 °FPassing clouds.5 mph87%29.88 "Hg6 mi
3:00 AM37 °FLow clouds.5 mph94%29.86 "Hg4 mi
2:00 AM37 °FFog.3 mph94%29.85 "Hg4 mi
1:00 AM37 °FPassing clouds.6 mph94%29.84 "Hg3 mi
12:00 AM37 °FPassing clouds.5 mph91%29.84 "Hg4 mi
11:00 PM
Thu, Mar 26
38 °FLight rain. Fog.2 mph92%29.84 "Hg3 mi
10:00 PM39 °FLight rain. Low clouds.6 mph88%29.84 "Hg2 mi
9:00 PM41 °FPassing clouds.5 mph80%29.82 "Hg4 mi
8:00 PM41 °FOvercast.5 mph76%29.81 "Hg6 mi
7:00 PM42 °FOvercast.3 mph75%29.80 "Hg4 mi
6:00 PM42 °FOvercast.5 mph72%29.78 "Hg4 mi
5:00 PM44 °FOvercast.3 mph70%29.78 "Hg4 mi
3:00 PM44 °FOvercast.3 mph75%29.78 "Hg4 mi
2:00 PM43 °FOvercast.2 mph76%29.79 "Hg4 mi
1:00 PM43 °FOvercast.1 mph78%29.79 "Hg4 mi
12:00 PM42 °FFog.3 mph81%29.79 "Hg3 mi
11:00 AM41 °FOvercast.5 mph82%29.80 "Hg3 mi
9:00 AM40 °FFog.5 mph83%29.78 "Hg4 mi
8:00 AM40 °FFog.5 mph86%29.77 "Hg3 mi
7:00 AM40 °FFog.5 mph88%29.75 "Hg3 mi
Weather by CustomWeather, © 2015

See weather overviewHow to use our weather pages